Ketchikan, AK

10:21 PM AKDT on September 22, 2018 (GMT -0800)
Ketchikan International

Weather History for PAKT - June, 2018

Change the Weather History Date:

Monday, June 11, 2018

  Actual Average Record
Temperature  
Mean Temperature 50 °F -  
Max Temperature 55 °F 62 °F 84 °F (1969)
Min Temperature 46 °F 45 °F 36 °F (1973)
Degree Days  
Heating Degree Days 14    
Moisture  
Dew Point 44 °F    
Average Humidity 78    
Maximum Humidity 86    
Minimum Humidity 64    
Precipitation  
Precipitation 0.00 in - - ()
Sea Level Pressure  
Sea Level Pressure 30.13 in    
Wind  
Wind Speed 6 mph (SE)    
Max Wind Speed 14 mph    
Max Gust Speed -    
Visibility 10 miles    
Events Rain    
Averages and records for this station are not official NWS values.
T = Trace of Precipitation, MM = Missing Value Source: NWS Daily Summary

Daily Weather History Graph

Daily Weather History Graph

Search for Another Location

Airport or City:

Astronomy

Jun. 11, 2018 Rise Set
Actual Time 4:05 AM AKDT 9:27 PM AKDT
Civil Twilight 3:07 AM AKDT 10:26 PM AKDT
Nautical Twilight 1:18 AM AKDT 12:14 AM AKDT
Astronomical Twilight Sun does not set Sun does not set
Moon 3:22 AM AKDT (6/11) 6:40 PM AKDT (6/11)
Length of Visible Light 19h 19m
Length of Day
17h 21m
Waning Crescent, 6% of the Moon is Illuminated
Jun 11
Waning Crescent
Jun 13
New
Jun 20
First Quarter
Jun 27
Full
Jul 5
Last Quarter

Hourly Weather History & Observations

Time (AKDT) Temp. Windchill Dew Point Humidity Pressure Visibility Wind Dir Wind Speed Gust Speed Precip Events Conditions
12:53 AM 46.0 °F - 41.0 °F 83% 30.06 in 10.0 mi Calm Calm - N/A   Mostly Cloudy
1:53 AM 46.0 °F 43.9 °F 41.0 °F 83% 30.07 in 10.0 mi SSW 4.6 mph - N/A   Mostly Cloudy
2:53 AM 46.0 °F 43.9 °F 41.0 °F 83% 30.08 in 10.0 mi SSW 4.6 mph - N/A   Overcast
3:53 AM 46.9 °F - 43.0 °F 86% 30.09 in 10.0 mi South 3.5 mph - N/A   Overcast
4:53 AM 46.9 °F - 42.1 °F 83% 30.09 in 10.0 mi SSE 5.8 mph - N/A   Overcast
5:53 AM 48.9 °F - 43.0 °F 80% 30.09 in 10.0 mi SSE 3.5 mph - N/A   Overcast
6:07 AM 48.9 °F - 43.0 °F 80% 30.09 in 10.0 mi South 3.5 mph - N/A   Overcast
6:53 AM 50.0 °F - 44.1 °F 80% 30.10 in 10.0 mi SSE 4.6 mph - N/A   Overcast
7:53 AM 51.8 °F - 44.6 °F 76% 30.11 in 10.0 mi SE 6.9 mph - N/A   Overcast
8:53 AM 51.8 °F - 44.6 °F 76% 30.11 in 10.0 mi SE 6.9 mph - N/A   Overcast
9:53 AM 51.8 °F - 46.4 °F 82% 30.12 in 10.0 mi ESE 6.9 mph - N/A   Overcast
10:53 AM 52.0 °F - 45.0 °F 77% 30.13 in 10.0 mi ESE 8.1 mph - N/A   Overcast
11:53 AM 54.0 °F - 46.0 °F 75% 30.14 in 10.0 mi ESE 11.5 mph - N/A   Overcast
12:53 PM 53.6 °F - 46.4 °F 77% 30.15 in 10.0 mi SE 6.9 mph - N/A Rain Light Rain
1:53 PM 53.6 °F - 46.4 °F 77% 30.16 in 10.0 mi ESE 10.4 mph - N/A   Overcast
2:53 PM 53.6 °F - 46.4 °F 77% 30.17 in 10.0 mi SE 9.2 mph - N/A Rain Light Rain
3:53 PM 55.4 °F - 46.4 °F 72% 30.17 in 10.0 mi SE 9.2 mph - N/A   Overcast
4:53 PM 54.0 °F - 46.0 °F 75% 30.17 in 10.0 mi ESE 12.7 mph - 0.00 in   Overcast
5:53 PM 55.9 °F - 44.1 °F 64% 30.16 in 10.0 mi SE 13.8 mph - N/A   Mostly Cloudy
6:53 PM 55.0 °F - 44.1 °F 67% 30.16 in 10.0 mi SE 12.7 mph - N/A   Mostly Cloudy
7:53 PM 53.1 °F - 44.1 °F 71% 30.16 in 10.0 mi ESE 12.7 mph - N/A   Mostly Cloudy
8:53 PM 52.0 °F - 44.1 °F 74% 30.15 in 10.0 mi ESE 10.4 mph - N/A   Scattered Clouds
9:27 PM 51.1 °F - 44.1 °F 77% 30.15 in 10.0 mi SE 8.1 mph - N/A   Mostly Cloudy
9:53 PM 52.0 °F - 44.1 °F 74% 30.16 in 10.0 mi ESE 11.5 mph - N/A   Overcast
10:24 PM 51.1 °F - 45.0 °F 80% 30.15 in 10.0 mi SE 9.2 mph - N/A   Scattered Clouds
10:39 PM 51.1 °F - 45.0 °F 80% 30.15 in 10.0 mi SE 8.1 mph - N/A   Mostly Cloudy
10:46 PM 50.0 °F - 44.1 °F 80% 30.15 in 10.0 mi SE 6.9 mph - N/A   Mostly Cloudy
10:53 PM 50.0 °F - 44.1 °F 80% 30.16 in 10.0 mi SE 6.9 mph - N/A   Mostly Cloudy
11:34 PM 48.0 °F - 43.0 °F 83% 30.14 in 10.0 mi South 6.9 mph - N/A   Scattered Clouds
11:53 PM 48.0 °F - 43.0 °F 83% 30.14 in 10.0 mi South 6.9 mph - N/A   Clear